{"data":{"norad_id":67427,"epoch":"2026-09-19T07:14:57.389568Z","epoch_age_seconds":178872,"freshness":"STALE","line1":"1 67427U 26005Z   26262.30205312  .00009599  00000+0  35783-3 0  9993","line2":"2 67427  43.0008 224.8506 0001420 271.3409  88.7280 15.27585633 38293","mean_motion":15.27585633,"eccentricity":0.000142,"inclination_deg":43.0008,"raan_deg":224.8506,"arg_perigee_deg":271.3409,"mean_anomaly_deg":88.728,"bstar":0.00035783,"rev_number":3829,"period_min":94.266401103289,"perigee_km":482.05794283253,"apogee_km":484.00651489352,"semimajor_km":6861.169228863,"source":"CELESTRAK","updated_at":"2026-09-20T09:00:43.524436Z"}}